Date,TemperatureHighF,TemperatureAvgF,TemperatureLowF,DewpointHighF,DewpointAvgF,DewpointLowF,HumidityHigh,HumidityAvg,HumidityLow,PressureMaxIn,PressureMinIn,WindSpeedMaxMPH,WindSpeedAvgMPH,GustSpeedMaxMPH,PrecipitationSumIn
2013-1-1,16.0,5.4,-9.0,10.0,-1.4,-15.0,81,73,62,30.28,30.09,2,0,6,0.00
2013-1-2,19.0,15.6,10.0,13.0,9.9,6.0,85,78,68,30.09,29.96,2,0,5,0.00
2013-1-3,21.0,16.4,9.0,17.0,11.3,3.0,87,80,74,30.19,30.05,2,1,5,0.00
2013-1-4,29.0,20.1,10.0,18.0,13.1,6.0,86,75,59,30.14,29.99,2,0,8,0.00
2013-1-5,27.0,15.6,6.0,18.0,10.5,2.0,89,80,69,30.13,29.84,1,0,3,0.00
2013-1-6,23.0,18.6,7.0,17.0,12.5,3.0,84,77,65,30.19,29.93,2,0,6,0.00
2013-1-7,36.0,26.9,11.0,25.0,19.6,7.0,85,74,63,30.11,29.88,3,1,12,0.02
2013-1-8,37.0,26.0,11.0,30.0,20.6,7.0,88,80,70,29.98,29.76,3,0,8,0.01
2013-1-9,36.0,31.1,21.0,27.0,22.7,16.0,83,71,54,30.33,29.84,5,2,12,0.01
2013-1-10,38.0,28.6,18.0,31.0,21.2,14.0,90,75,49,30.37,29.75,1,0,5,0.30
2013-1-11,42.0,36.6,34.0,39.0,34.6,32.0,93,92,91,29.77,29.37,1,0,5,0.40
2013-1-12,43.0,24.1,11.0,41.0,17.3,2.0,93,75,65,30.01,29.35,6,2,15,0.01
2013-1-13,13.0,8.9,6.0,6.0,2.2,0.0,79,74,65,30.23,29.98,2,1,6,0.00
2013-1-14,15.0,7.6,1.0,7.0,2.1,-3.0,83,78,69,30.40,30.23,3,0,7,0.00
2013-1-15,30.0,15.7,0.0,18.0,7.9,-4.0,88,72,55,30.35,29.88,2,0,9,0.00
2013-1-16,35.0,27.0,17.0,29.0,18.0,3.0,85,69,48,30.12,29.64,3,1,12,0.01
2013-1-17,18.0,12.9,7.0,8.0,1.9,-4.0,82,61,50,30.38,30.13,3,1,8,0.01
2013-1-18,42.0,26.6,8.0,31.0,19.9,3.0,83,76,62,30.34,29.70,3,0,7,0.05
2013-1-19,40.0,26.8,6.0,31.0,19.4,-4.0,87,74,51,30.07,29.59,5,2,17,0.01
2013-1-20,8.0,4.3,0.0,-1.0,-4.8,-7.0,74,65,52,30.35,30.07,2,1,10,0.01
2013-1-21,3.0,-5.1,-9.0,-4.0,-14.2,-19.0,71,64,55,30.32,30.21,2,1,7,0.00
2013-1-22,1.0,-4.9,-11.0,-8.0,-13.3,-18.0,77,66,58,30.43,30.29,2,0,3,0.00
2013-1-23,15.0,4.7,-4.0,7.0,-3.1,-15.0,83,70,52,30.58,30.11,7,1,15,0.00
2013-1-24,11.0,1.5,-6.0,2.0,-7.7,-15.0,70,64,60,30.70,30.28,1,0,5,0.00
2013-1-25,20.0,14.3,8.0,14.0,7.7,1.0,83,74,62,30.28,29.92,2,0,7,0.00
2013-1-26,23.0,11.6,-3.0,12.0,3.3,-9.0,81,69,56,30.39,30.18,1,0,3,0.02
2013-1-27,31.0,26.8,20.0,29.0,20.3,12.0,91,77,61,30.21,29.78,1,0,3,0.02
2013-1-28,34.0,31.5,30.0,31.0,28.9,28.0,91,89,85,29.88,29.76,0,0,2,0.09
2013-1-30,22.0,16.1,12.0,18.0,10.5,5.0,86,78,71,29.64,29.49,4,1,10,0.01
2013-1-31,12.0,4.2,-2.0,5.0,-3.4,-10.0,76,70,66,30.19,29.64,2,1,10,0.00
2013-2-1,4.0,-2.9,-10.0,-1.0,-11.3,-18.0,80,67,54,30.32,30.11,2,0,7,0.00
2013-2-2,10.0,5.6,2.0,1.0,-1.6,-5.0,81,72,57,30.18,29.98,1,0,3,0.00
2013-2-3,14.0,10.7,7.0,6.0,3.1,2.0,83,71,57,30.03,29.95,2,0,8,0.00
2013-2-4,15.0,9.8,3.0,7.0,1.2,-3.0,83,68,46,30.04,29.86,1,0,3,0.00
2013-2-5,26.0,18.1,4.0,22.0,12.1,-1.0,86,77,64,30.06,29.65,4,0,10,0.00
2013-2-6,25.0,11.8,-7.0,21.0,7.2,-13.0,85,81,75,30.15,29.99,0,0,3,0.00
2013-2-7,27.0,25.8,25.0,24.0,21.8,20.0,89,85,81,30.20,29.99,3,1,10,0.00
2013-2-8,26.0,18.7,9.0,20.0,10.7,4.0,86,71,53,30.37,30.19,2,0,8,0.01
2013-2-9,29.0,23.2,8.0,24.0,18.4,3.0,89,82,76,30.29,29.97,2,0,7,0.01
2013-2-10,32.0,28.4,27.0,29.0,24.6,22.0,90,86,82,29.97,29.42,1,0,7,0.00
2013-2-11,27.0,25.6,22.0,23.0,19.1,15.0,83,76,73,29.96,29.64,3,1,10,0.44
2013-2-12,34.0,25.0,17.0,25.0,18.4,12.0,86,76,63,29.99,29.76,2,0,7,0.06
2013-2-13,36.0,29.3,23.0,29.0,23.3,18.0,90,78,66,29.76,29.52,2,0,6,0.06
2013-2-14,33.0,27.6,15.0,30.0,21.2,5.0,91,77,57,30.08,29.52,5,1,12,0.01
2013-2-15,17.0,12.8,10.0,6.0,3.6,2.0,75,66,56,30.24,30.08,2,0,9,0.01
2013-2-16,17.0,8.3,-4.0,4.0,-0.0,-10.0,80,69,52,30.20,30.15,2,0,6,0.00
2013-2-17,27.0,10.4,-10.0,15.0,1.9,-16.0,81,69,56,30.17,29.76,1,0,8,0.00
2013-2-18,37.0,26.2,19.0,30.0,20.6,12.0,89,79,71,29.76,29.47,3,1,8,0.08
2013-2-19,18.0,8.8,4.0,13.0,-1.0,-6.0,80,64,52,30.28,29.61,4,1,12,0.01
2013-2-20,20.0,9.4,-1.0,8.0,0.8,-8.0,76,68,57,30.42,30.28,2,0,5,0.00
2013-2-21,22.0,12.7,-3.0,13.0,4.5,-9.0,82,70,58,30.47,30.10,1,0,5,0.00
2013-2-22,30.0,24.7,20.0,25.0,20.8,13.0,88,85,73,30.10,29.78,2,0,7,0.03
2013-2-23,30.0,25.4,22.0,23.0,20.9,18.0,87,83,76,29.90,29.78,1,0,5,0.01
2013-2-24,35.0,26.9,20.0,24.0,20.5,16.0,85,77,60,30.07,29.90,2,0,3,0.08
2013-2-25,34.0,27.8,19.0,28.0,22.9,15.0,88,82,75,30.08,30.00,0,0,3,0.02
2013-2-26,37.0,31.5,27.0,26.0,25.0,23.0,86,77,64,30.03,29.78,3,1,8,0.04
2013-2-27,36.0,32.5,30.0,27.0,24.9,22.0,79,73,66,29.90,29.75,7,3,17,0.01
2013-2-28,32.0,29.2,24.0,26.0,20.6,13.0,82,70,63,30.17,29.90,6,2,12,0.00
2013-3-1,31.0,24.2,17.0,15.0,13.1,10.0,74,63,47,30.29,30.17,4,1,10,0.00
2013-3-2,29.0,18.4,6.0,14.0,9.2,1.0,85,68,45,30.31,30.16,2,0,8,0.00
2013-3-3,33.0,17.6,0.0,10.0,4.6,-5.0,82,59,32,30.16,30.02,1,0,7,0.02
2013-3-4,28.0,23.0,15.0,20.0,11.2,0.0,76,60,50,30.05,29.97,1,0,7,0.01
2013-3-5,27.0,24.8,23.0,23.0,20.9,19.0,87,85,78,30.19,29.97,3,1,12,0.00
2013-3-6,31.0,23.8,15.0,20.0,16.3,9.0,83,73,56,30.35,30.18,3,1,10,0.08
2013-3-7,34.0,19.0,-1.0,19.0,10.1,-6.0,84,69,51,30.40,30.32,1,0,3,0.08
2013-3-8,41.0,27.8,14.0,29.0,20.4,10.0,86,74,61,30.37,30.13,2,0,6,0.11
2013-3-9,36.0,33.8,31.0,34.0,30.4,24.0,92,87,73,30.13,29.68,1,0,5,0.30
2013-3-10,36.0,34.3,30.0,33.0,31.0,28.0,92,87,79,29.85,29.69,4,2,14,0.34
2013-3-11,31.0,28.7,27.0,28.0,25.5,23.0,91,87,83,29.76,29.62,5,1,12,0.02
2013-3-12,30.0,25.2,20.0,23.0,17.8,13.0,87,74,54,30.08,29.74,5,1,15,0.02
2013-3-13,33.0,22.9,14.0,15.0,9.7,4.0,81,58,33,30.30,30.08,2,0,10,0.01
2013-3-14,37.0,25.5,14.0,28.0,19.5,9.0,87,78,70,30.26,29.99,1,0,6,0.01
2013-3-15,35.0,30.3,26.0,30.0,26.2,22.0,90,85,78,29.99,29.80,1,0,5,0.03
2013-3-16,27.0,22.4,16.0,24.0,15.3,8.0,89,75,58,30.16,29.82,3,1,8,0.01
2013-3-17,29.0,17.7,3.0,14.0,7.2,-3.0,78,64,45,30.25,29.94,2,0,6,0.01
2013-3-18,29.0,21.7,16.0,25.0,16.3,9.0,86,80,72,29.94,29.54,5,1,12,0.00
2013-3-19,25.0,16.5,9.0,9.0,5.1,0.0,76,61,45,30.07,29.67,5,2,15,0.00
2013-3-20,21.0,11.6,4.0,4.0,-0.5,-5.0,73,58,46,30.12,30.06,4,1,9,0.00
2013-3-21,26.0,11.7,-6.0,10.0,2.0,-12.0,82,66,49,30.11,30.03,3,0,12,0.00
2013-3-22,36.0,19.9,0.0,17.0,8.5,-5.0,83,63,40,30.07,30.01,2,0,5,0.01
2013-3-23,37.0,27.9,13.0,23.0,17.7,8.0,84,66,51,30.12,30.04,3,0,9,0.07
2013-3-24,33.0,30.2,26.0,24.0,21.2,19.0,77,69,59,30.07,29.89,6,1,12,0.01
2013-3-25,37.0,28.7,20.0,23.0,18.7,14.0,79,67,50,30.15,29.94,4,1,10,0.01
2013-3-26,39.0,31.7,25.0,24.0,21.3,19.0,81,66,48,30.24,30.14,2,0,6,0.01
2013-3-27,43.0,34.9,27.0,25.0,20.0,14.0,76,57,33,30.29,30.24,3,0,7,0.01
2013-3-28,45.0,31.4,15.0,21.0,17.4,11.0,84,60,32,30.32,30.25,2,0,6,0.00
2013-3-29,48.0,33.6,18.0,26.0,20.6,14.0,85,62,35,30.29,30.09,1,0,6,0.00
2013-3-30,41.0,37.7,30.0,39.0,32.1,-99.9,92,83,64,30.09,29.77,1,0,3,0.71
2013-3-31,40.0,33.2,28.0,32.0,24.3,13.0,92,72,38,29.95,29.70,5,1,14,0.01
2013-4-1,32.0,26.2,20.0,15.0,12.6,9.0,70,56,44,30.17,29.96,3,1,12,0.01
2013-4-2,36.0,27.1,18.0,16.0,13.8,11.0,72,58,42,30.31,30.17,3,0,9,0.00
2013-4-3,42.0,30.4,13.0,23.0,15.5,9.0,84,57,29,30.42,30.10,2,0,7,0.00
2013-4-4,49.0,41.6,35.0,33.0,26.2,21.0,63,54,40,30.10,29.96,2,1,12,0.00
2013-4-5,43.0,34.9,25.0,30.0,20.4,16.0,89,57,35,30.20,29.97,1,0,3,0.00
2013-4-6,47.0,38.1,33.0,38.0,30.3,24.0,90,75,51,29.97,29.43,2,0,8,0.39
2013-4-7,44.0,37.6,35.0,33.0,32.0,30.0,88,80,65,29.90,29.63,1,0,3,0.23
2013-4-8,42.0,38.3,36.0,37.0,35.0,32.0,92,87,79,29.97,29.67,1,0,6,0.39
2013-4-9,40.0,37.6,34.0,36.0,33.5,27.0,91,85,66,30.08,29.93,3,1,12,0.46
2013-4-10,37.0,33.7,29.0,30.0,27.6,21.0,90,79,52,30.13,29.86,2,1,8,0.40
2013-4-11,37.0,33.6,30.0,32.0,27.0,20.0,90,78,51,29.88,29.63,3,1,12,0.20
2013-4-12,36.0,31.7,28.0,31.0,27.5,25.0,90,85,75,29.75,29.58,2,0,5,0.27
2013-4-13,36.0,31.0,27.0,27.0,24.7,22.0,87,78,61,29.95,29.75,2,0,7,0.09
2013-4-14,35.0,30.1,23.0,33.0,26.7,20.0,91,87,73,29.95,29.52,2,0,9,0.01
2013-4-15,40.0,36.8,33.0,33.0,29.3,26.0,92,75,61,29.89,29.55,6,2,13,1.29
2013-4-16,44.0,37.2,29.0,29.0,27.6,24.0,82,69,51,30.28,29.89,2,0,7,0.01
2013-4-17,41.0,35.2,28.0,33.0,28.3,24.0,90,76,65,30.29,29.84,2,0,10,0.07
2013-4-18,38.0,35.1,32.0,34.0,32.7,30.0,91,90,85,29.84,29.28,3,1,9,0.48
2013-4-19,35.0,31.1,27.0,30.0,25.0,20.0,91,78,59,29.91,29.25,6,1,16,0.15
2013-4-20,40.0,30.7,20.0,21.0,14.3,7.0,86,55,26,30.30,29.91,2,0,8,0.01
2013-4-21,45.0,36.4,28.0,41.0,30.2,17.0,92,79,57,30.33,30.05,2,0,8,0.41
2013-4-22,45.0,40.3,38.0,43.0,38.3,36.0,92,92,91,30.14,29.98,3,0,7,0.75
2013-4-23,41.0,36.8,29.0,29.0,25.2,21.0,81,63,47,30.03,29.97,3,1,12,0.50
2013-4-24,52.0,38.4,25.0,34.0,25.4,21.0,89,63,34,30.00,29.83,1,0,7,0.01
2013-4-25,49.0,38.7,32.0,33.0,30.0,27.0,90,73,43,30.16,29.90,0,0,2,0.00
2013-4-26,73.0,54.0,34.0,42.0,36.4,28.0,81,55,28,30.12,29.95,0,0,6,0.00
2013-4-27,73.0,56.6,37.0,50.0,43.0,34.0,91,64,37,30.05,29.88,0,0,2,0.00
2013-4-28,75.0,59.4,40.0,53.0,43.6,37.0,89,60,34,29.87,29.62,0,0,2,0.00
2013-4-29,74.0,60.4,52.0,56.0,52.6,49.0,93,77,48,29.70,29.54,0,0,1,0.00
2013-4-30,83.0,66.1,54.0,58.0,49.8,35.0,90,61,28,29.84,29.42,0,0,8,0.00
2013-5-1,54.0,43.7,34.0,51.0,39.4,32.0,92,85,76,30.38,29.83,1,0,7,0.00
2013-5-2,34.0,32.4,31.0,32.0,30.4,29.0,93,92,92,30.43,30.35,1,0,6,0.00
2013-5-3,31.0,31.0,31.0,29.0,29.0,29.0,92,92,92,30.35,30.20,0,0,0,0.00
2013-5-6,76.0,68.3,53.0,46.0,41.9,37.0,70,40,24,30.02,29.92,0,0,0,0.00
2013-5-7,82.0,62.3,43.0,47.0,40.6,32.0,90,53,18,29.99,29.87,0,0,0,0.00
2013-5-8,83.0,63.8,44.0,51.0,43.2,38.0,89,53,23,29.93,29.84,0,0,0,0.00
2013-5-9,64.0,52.5,42.0,51.0,47.9,40.0,92,84,62,29.99,29.85,0,0,8,0.00
2013-5-10,67.0,49.5,38.0,40.0,30.3,-99.9,92,56,18,30.01,29.83,0,0,6,0.00
2013-5-11,52.0,46.0,41.0,43.0,29.6,-99.9,84,56,35,30.05,29.77,1,0,12,0.00
2013-5-12,58.0,45.2,35.0,27.0,20.3,12.0,63,40,17,30.11,30.01,1,0,6,0.00
2013-5-13,66.0,48.9,29.0,38.0,28.6,19.0,80,49,17,30.09,29.67,0,0,1,0.00
2013-5-14,90.0,67.3,43.0,55.0,43.3,26.0,85,48,14,29.70,29.35,0,0,5,0.00
2013-5-15,79.0,67.7,57.0,45.0,42.7,34.0,64,42,24,29.79,29.49,0,0,3,0.00
2013-5-16,85.0,63.0,48.0,49.0,25.0,-99.9,86,46,20,29.84,29.73,0,0,3,0.00
2013-5-17,67.0,54.8,52.0,53.0,42.4,-99.9,91,74,34,29.96,29.84,0,0,2,0.00
2013-5-18,80.0,63.2,51.0,63.0,55.1,47.0,90,76,53,29.96,29.75,0,0,0,0.00
2013-5-19,76.0,64.2,61.0,64.0,59.9,58.0,92,86,60,29.78,29.54,0,0,1,0.00
2013-5-21,68.0,64.0,59.0,64.0,58.0,52.0,93,82,63,29.59,29.48,0,0,0,0.00
2013-5-22,59.0,53.1,51.0,55.0,49.5,47.0,92,87,82,29.85,29.58,0,0,5,0.00
2013-5-23,63.0,52.5,42.0,49.0,35.5,27.0,92,57,26,30.27,29.85,1,0,10,0.00
2013-5-24,68.0,53.0,34.0,44.0,35.5,30.0,90,56,29,30.37,30.19,0,0,0,0.00
2013-5-25,62.0,55.8,51.0,49.0,46.4,42.0,89,72,51,30.24,30.19,1,0,6,0.00
2013-5-26,66.0,62.7,58.0,46.0,39.5,34.0,63,43,33,30.18,30.05,2,0,10,0.00
2013-5-27,62.0,56.6,52.0,53.0,47.0,41.0,91,71,56,31.87,29.79,2,0,7,0.21
2013-5-28,58.0,54.8,52.0,56.0,52.4,49.0,92,91,87,31.84,28.73,1,0,3,0.29
2013-5-29,80.0,62.9,56.0,67.0,59.0,54.0,93,88,61,29.28,29.14,2,0,6,0.63
2013-5-30,79.0,69.8,62.0,67.0,63.2,59.0,93,80,58,29.63,29.09,3,0,9,0.19
2013-5-31,81.0,67.7,58.0,64.0,59.1,53.0,90,76,47,29.58,29.48,5,1,16,0.66
2013-6-1,72.0,60.4,50.0,59.0,53.5,45.0,93,79,52,29.80,29.51,6,1,17,0.46
2013-6-2,64.0,52.2,44.0,46.0,41.1,38.0,89,68,41,30.02,29.81,5,1,14,0.00
2013-6-3,71.0,58.3,42.0,50.0,42.7,38.0,92,61,32,30.04,29.94,2,0,7,0.00
2013-6-4,59.0,55.5,53.0,53.0,48.9,41.0,91,79,53,30.11,29.98,1,0,3,0.21
2013-6-5,55.0,53.1,51.0,53.0,50.7,48.0,93,92,90,30.07,29.92,1,0,3,0.55
2013-6-6,55.0,53.0,51.0,52.0,50.3,49.0,93,90,86,29.98,29.91,1,0,5,0.06
2013-6-7,70.0,60.0,52.0,52.0,48.0,43.0,93,68,39,30.00,29.88,2,0,5,0.02
2013-6-8,73.0,62.6,54.0,55.0,52.9,50.0,91,72,53,29.91,29.87,1,0,6,0.00
2013-6-9,67.0,59.2,54.0,64.0,55.3,50.0,92,87,73,29.92,29.77,1,0,5,0.42
2013-6-10,78.0,65.8,56.0,62.0,58.8,54.0,94,80,54,29.80,29.75,1,0,3,0.01
2013-6-11,78.0,66.6,54.0,65.0,59.8,51.0,93,80,61,29.85,29.77,2,0,3,0.04
2013-6-12,70.0,65.4,61.0,65.0,61.8,58.0,93,88,78,29.86,29.70,1,0,3,0.16
2013-6-13,77.0,67.1,56.0,61.0,52.7,48.0,92,62,39,30.04,29.79,4,1,12,0.02
2013-6-14,82.0,67.2,52.0,60.0,52.7,49.0,91,63,34,30.09,29.88,1,0,7,0.05
2013-6-15,77.0,67.3,60.0,69.0,61.8,57.0,91,83,72,29.93,29.75,3,0,12,0.25
2013-6-16,84.0,70.7,55.0,59.0,52.4,45.0,93,59,26,29.86,29.78,3,0,10,0.01
2013-6-17,81.0,69.8,57.0,59.0,53.9,50.0,87,59,38,29.95,29.79,3,1,13,0.00
2013-6-18,75.0,66.0,59.0,54.0,50.1,41.0,81,60,31,30.06,29.95,2,0,7,0.00
2013-6-19,83.0,69.0,53.0,61.0,54.1,47.0,85,61,41,30.09,29.95,2,0,5,0.00
2013-6-20,80.0,68.6,63.0,68.0,60.3,57.0,92,76,49,30.03,29.94,1,0,3,0.28
2013-6-22,80.0,75.0,69.0,70.0,67.9,66.0,93,79,68,29.91,29.80,1,0,3,1.00
2013-6-23,83.0,74.9,66.0,69.0,64.9,62.0,88,72,51,29.84,29.69,3,0,10,0.04
2013-6-24,86.0,74.0,63.0,70.0,65.5,60.0,91,76,59,29.87,29.75,2,0,6,0.02
2013-6-25,86.0,76.2,64.0,71.0,65.8,61.0,92,72,50,29.81,29.68,1,0,8,0.00
2013-6-26,89.0,74.5,68.0,73.0,69.5,65.0,93,85,52,29.71,29.62,3,0,12,0.52
2013-6-27,86.0,75.9,67.0,70.0,63.0,53.0,93,68,35,29.75,29.67,6,1,15,0.30
2013-6-28,78.0,68.5,63.0,66.0,59.7,54.0,88,74,57,29.72,29.62,4,1,12,0.04
2013-6-29,71.0,64.7,61.0,62.0,56.1,49.0,86,75,55,29.93,29.67,4,1,12,0.04
2013-6-30,81.0,67.1,52.0,56.0,49.3,41.0,85,57,28,30.06,29.93,4,1,12,0.02
2013-7-1,83.0,69.3,54.0,56.0,52.7,50.0,90,59,34,30.15,30.06,2,0,7,0.02
2013-7-2,82.0,68.3,55.0,59.0,53.0,48.0,84,60,33,30.12,30.01,2,0,6,0.02
2013-7-3,84.0,69.9,54.0,58.0,54.2,50.0,90,61,34,30.06,29.95,1,0,3,0.01
2013-7-4,88.0,74.7,61.0,62.0,58.9,55.0,84,60,38,29.98,29.88,2,0,7,0.02
2013-7-5,90.0,78.3,63.0,62.0,58.9,56.0,81,54,34,29.93,29.83,2,0,9,0.01
2013-7-6,92.0,79.0,68.0,68.0,62.9,59.0,77,59,40,29.89,29.81,1,0,7,0.00
2013-7-7,91.0,81.3,70.0,71.0,68.0,64.0,91,65,48,29.83,29.78,1,0,7,0.00
2013-7-8,86.0,76.3,73.0,71.0,67.5,-99.9,89,77,56,29.86,29.78,1,0,5,0.00
2013-7-9,85.0,76.4,68.0,73.0,68.3,65.0,91,77,53,29.86,29.66,3,0,14,0.00
2013-7-10,78.0,70.8,64.0,68.0,54.3,-99.9,80,60,41,29.92,29.72,5,1,15,0.00
2013-7-11,87.0,71.8,58.0,59.0,56.2,53.0,90,62,31,30.01,29.91,1,0,3,0.00
2013-7-12,87.0,75.1,63.0,61.0,58.9,57.0,82,59,39,29.98,29.87,2,0,9,0.00
2013-7-13,84.0,73.3,64.0,62.0,59.8,57.0,87,64,43,29.99,29.88,2,0,8,0.00
2013-7-14,89.0,77.8,65.0,65.0,62.6,60.0,85,62,40,30.21,29.99,2,0,7,0.00
2013-7-15,93.0,79.3,63.0,70.0,64.6,59.0,90,64,40,30.27,30.19,1,0,6,0.00
2013-7-16,96.0,84.5,74.0,72.0,69.3,66.0,86,63,40,30.23,30.17,3,0,7,0.00
2013-7-17,95.0,85.0,73.0,71.0,67.4,62.0,87,59,34,30.25,30.13,2,0,7,0.00
2013-7-18,96.0,86.1,74.0,71.0,68.1,66.0,83,58,40,30.12,29.78,3,1,10,0.00
2013-7-19,87.0,82.0,71.0,71.0,63.9,53.0,76,56,36,29.85,29.69,3,1,13,0.00
2013-7-20,82.0,71.9,65.0,60.0,54.9,-99.9,78,58,34,29.98,29.84,2,0,7,0.00
2013-7-21,76.0,65.5,58.0,64.0,57.5,48.0,91,76,55,30.02,29.88,1,0,5,0.03
2013-7-22,87.0,71.3,61.0,75.0,64.2,56.0,92,80,58,29.90,29.65,3,0,9,0.01
2013-7-23,74.0,65.2,59.0,58.0,52.3,48.0,82,65,43,30.05,29.81,3,1,10,0.00
2013-7-24,76.0,63.9,51.0,55.0,50.3,47.0,90,64,38,30.12,30.02,2,0,3,0.00
2013-7-25,82.0,69.0,55.0,63.0,58.8,52.0,91,72,47,30.03,29.93,2,0,7,0.00
2013-7-26,72.0,65.4,56.0,62.0,56.0,47.0,88,73,48,30.05,29.89,7,1,17,0.00
2013-7-27,58.0,53.7,48.0,50.0,46.2,44.0,88,76,60,30.05,29.92,3,1,12,0.00
2013-7-28,67.0,57.0,49.0,54.0,49.7,45.0,90,77,59,30.08,29.94,3,1,9,0.00
2013-7-29,76.0,63.6,50.0,57.0,52.5,47.0,92,70,43,30.18,30.09,2,0,7,0.00
2013-7-30,77.0,67.7,60.0,64.0,59.5,55.0,88,76,58,30.16,30.07,1,0,3,0.00
2013-7-31,78.0,69.8,64.0,65.0,60.4,54.0,91,74,45,30.08,29.96,1,0,9,0.00
2013-8-1,80.0,68.1,55.0,58.0,53.1,50.0,86,62,36,30.04,29.88,2,0,8,0.00
2013-8-2,77.0,67.3,56.0,58.0,52.8,48.0,91,63,39,30.04,29.85,3,0,9,0.00
2013-8-3,75.0,65.0,52.0,54.0,49.5,45.0,91,61,34,30.20,30.03,3,1,12,0.00
2013-8-4,77.0,63.3,49.0,54.0,50.7,46.0,91,67,37,30.28,30.09,2,0,6,0.00
2013-8-5,72.0,64.7,56.0,65.0,59.0,52.0,90,82,73,30.09,29.84,1,0,5,0.00
2013-8-6,84.0,71.3,63.0,68.0,60.8,55.0,92,72,43,29.87,29.71,5,0,14,0.00
2013-8-7,75.0,66.4,58.0,60.0,55.5,49.0,92,71,40,30.05,29.77,3,1,10,0.00
2013-8-8,79.0,65.2,48.0,56.0,50.7,45.0,91,63,35,30.09,30.01,3,0,6,0.00
2013-8-9,78.0,67.7,58.0,58.0,52.7,47.0,89,62,35,30.12,30.01,2,0,12,0.00
2013-8-10,75.0,67.4,58.0,54.0,51.3,48.0,79,58,39,30.20,30.12,2,0,6,0.00
2013-8-11,80.0,66.5,55.0,61.0,56.3,51.0,87,72,47,30.14,30.03,2,0,3,0.00
2013-8-12,79.0,67.1,58.0,63.0,57.1,51.0,92,74,39,30.06,30.00,2,0,10,0.00
2013-8-21,88.0,77.5,67.0,72.0,67.6,64.0,91,73,55,30.01,29.87,2,0,6,0.07
2013-8-22,85.0,73.2,65.0,64.0,59.0,52.0,92,65,33,30.14,30.00,2,0,5,0.04
2013-8-23,87.0,71.3,55.0,63.0,57.3,50.0,87,64,40,30.19,30.09,2,0,5,0.01
2013-8-24,86.0,72.7,62.0,70.0,60.0,-99.9,90,68,51,30.19,30.02,1,0,10,0.00
2013-8-25,95.0,84.7,75.0,73.0,70.5,68.0,78,64,46,30.07,29.97,2,0,9,0.00
2013-8-26,97.0,86.9,79.0,75.0,71.5,68.0,76,61,45,30.04,29.86,2,0,7,0.00
2013-8-27,95.0,83.5,76.0,74.0,71.2,69.0,81,68,47,29.88,29.77,1,0,5,0.00
2013-9-13,67.0,54.3,42.0,45.0,41.5,38.0,91,65,38,30.32,30.16,2,0,5,0.00
2013-9-14,73.0,55.6,39.0,54.0,40.9,-99.9,90,65,36,30.16,29.96,2,0,6,0.03
2013-9-15,65.0,56.4,49.0,55.0,50.6,42.0,92,82,68,30.35,29.95,3,1,10,0.03
2013-9-16,66.0,50.8,37.0,45.0,39.3,34.0,91,69,34,30.49,30.34,1,0,5,0.01
2013-9-17,68.0,53.5,40.0,54.0,45.6,37.0,92,77,47,30.37,30.06,1,0,6,0.00
2013-9-18,69.0,60.1,57.0,66.0,57.8,54.0,93,92,89,30.05,29.80,0,0,3,0.00
2013-9-19,80.0,71.1,66.0,70.0,66.5,63.0,92,86,71,29.80,29.72,3,0,8,0.01
2013-9-21,63.0,53.3,45.0,46.0,38.7,-99.9,88,65,51,30.01,29.94,1,0,6,0.00
2013-9-22,67.0,52.7,38.0,48.0,43.0,36.0,92,72,47,30.11,29.98,1,0,3,0.00
2013-9-23,71.0,58.2,46.0,51.0,46.0,42.0,87,66,45,30.09,29.99,1,0,8,0.00
2013-10-2,76.0,58.0,39.0,51.0,40.6,36.0,90,59,24,30.14,29.91,1,0,3,0.00
2013-10-3,59.0,56.6,54.0,56.0,53.5,51.0,92,90,85,29.98,29.85,5,0,12,0.00
2013-10-4,59.0,56.8,55.0,56.0,53.7,52.0,92,90,86,30.04,29.93,2,0,6,0.00
2013-10-5,63.0,57.9,50.0,61.0,55.7,47.0,93,92,90,29.97,29.72,5,0,10,0.00
2013-10-6,56.0,49.0,41.0,47.0,42.9,39.0,93,81,57,29.82,29.72,1,0,9,0.00
2013-10-7,64.0,49.8,43.0,47.0,42.4,38.0,92,78,39,30.07,29.83,2,0,6,0.00
2013-10-8,73.0,59.0,39.0,48.0,43.4,36.0,91,60,35,30.08,29.96,1,0,12,0.00
2013-10-9,73.0,61.9,50.0,53.0,48.4,44.0,85,63,45,30.14,30.02,2,0,9,0.00
2013-10-10,72.0,55.8,43.0,50.0,45.4,40.0,90,71,41,30.14,30.01,2,0,7,0.00
2013-10-18,49.0,42.6,34.0,43.0,36.9,30.0,90,81,48,29.98,29.83,2,0,10,0.00
2013-10-19,45.0,38.1,34.0,38.0,31.5,-99.9,90,82,71,29.91,29.75,2,0,5,0.00
2013-10-20,42.0,36.9,30.0,40.0,34.2,27.0,92,90,86,29.86,29.71,2,0,6,0.00
2013-10-21,37.0,35.3,33.0,34.0,25.4,19.0,88,68,50,29.99,29.87,3,1,9,0.00
2013-10-22,38.0,33.8,28.0,29.0,26.4,24.0,86,74,64,30.09,29.99,2,0,7,0.09
2013-10-23,38.0,33.3,28.0,31.0,26.8,23.0,87,77,64,30.11,30.03,2,0,9,0.63
2013-10-24,41.0,36.7,32.0,30.0,26.5,24.0,75,67,52,30.27,30.05,2,0,7,0.24
2013-10-25,54.0,46.3,35.0,38.0,31.9,26.0,81,58,49,30.27,29.71,4,1,10,0.02
2013-10-26,53.0,44.1,36.0,39.0,29.9,-99.9,77,59,50,30.03,29.69,5,1,15,0.01
2013-10-27,58.0,43.0,28.0,33.0,29.7,25.0,88,62,35,30.08,29.78,3,1,10,0.18
2013-10-28,42.0,34.7,28.0,31.0,22.3,-99.9,77,65,45,30.41,30.09,2,0,9,0.02
2013-10-29,42.0,35.2,28.0,36.0,28.1,20.0,85,75,68,30.42,30.10,1,0,3,0.52
2013-10-30,52.0,45.2,39.0,50.0,42.9,35.0,93,91,86,30.10,29.66,0,0,3,0.27
2013-11-18,33.0,28.7,22.0,25.0,20.8,18.0,85,72,67,30.26,29.70,5,1,12,0.01
2013-11-19,39.0,29.1,16.0,24.0,19.6,12.0,89,69,51,30.31,30.04,1,0,9,0.00
2013-11-20,41.0,36.6,33.0,31.0,26.7,22.0,91,70,48,30.05,29.98,1,0,9,0.03
2013-11-21,36.0,32.0,26.0,34.0,29.4,22.0,92,90,83,30.41,30.04,3,1,12,0.17
2013-11-22,30.0,24.2,19.0,21.0,15.6,10.0,87,70,50,30.55,30.43,5,1,12,0.01
2013-11-23,20.0,12.5,8.0,9.0,1.3,-99.9,74,63,51,30.79,30.52,3,1,14,0.00
2013-11-24,21.0,9.4,3.0,6.0,1.8,-2.0,84,72,49,30.73,30.45,2,0,6,0.00
2013-11-29,30.0,19.5,6.0,20.0,12.1,1.0,84,73,59,30.57,30.24,1,0,5,0.00
2013-11-30,38.0,31.1,24.0,27.0,21.4,-99.9,82,70,63,30.23,30.01,1,0,5,0.00
2013-12-1,35.0,26.6,18.0,25.0,21.5,15.0,88,81,65,30.17,29.97,0,0,3,0.00
2013-12-2,35.0,28.3,20.0,31.0,25.2,16.0,91,88,82,29.96,29.67,1,0,5,0.04
2013-12-3,34.0,32.5,30.0,32.0,30.3,27.0,92,91,90,29.78,29.64,1,0,3,0.16
2013-12-4,34.0,31.2,26.0,32.0,28.8,21.0,92,90,82,29.78,29.40,5,1,12,0.01
2013-12-5,24.0,10.8,4.0,20.0,4.5,-2.0,83,75,70,30.32,29.59,5,2,13,0.00